GW3458 Weather Reports


time (UTC)temp
C
wind
direction
speed
KPH
gust
KPH
rain 1hr
cm
rain 24hr
cm
rain mn
cm
humidity
%
barometer
mb
20260506012233 11 300 0.0 0.0 0.00 0.10 0.10 57 1011.5
20260506011731 11 301 0.0 0.0 0.00 0.10 0.10 59 1011.6
20260506011226 11 300 0.0 0.0 0.00 0.10 0.10 56 1011.5
20260506010725 11 300 0.0 0.0 0.00 0.10 0.10 56 1011.4
20260506010222 11 298 0.0 1.6 0.00 0.10 0.10 56 1011.2
20260506005719 11 302 0.0 0.0 0.00 0.10 0.10 56 1011.0
20260506005216 11 302 0.0 0.0 0.00 0.10 0.10 59 1011.1
20260506004712 11 300 0.0 0.0 0.00 0.10 0.10 58 1011.1
20260506004210 11 299 0.0 0.0 0.00 0.10 0.10 61 1011.0
20260506003705 11 300 0.0 0.0 0.00 0.10 0.10 59 1011.0
20260506003202 11 301 0.0 0.0 0.00 0.10 0.10 58 1011.0
20260506002658 11 300 0.0 0.0 0.00 0.10 0.10 55 1010.8
20260506002154 11 301 0.0 0.0 0.00 0.10 0.10 56 1010.6
20260506001650 11 301 0.0 0.0 0.00 0.10 0.10 54 1010.7
20260506001148 12 300 0.0 0.0 0.00 0.10 0.10 56 1010.8
20260506000645 12 301 0.0 0.0 0.00 0.10 0.10 53 1010.7
20260506000142 12 288 0.0 0.0 0.00 0.10 0.10 55 1010.7
20260505235640 12 296 0.0 0.0 0.00 0.10 0.10 52 1010.7
20260505235137 12 294 0.0 1.6 0.00 0.10 0.10 50 1010.8
20260505234634 12 300 0.0 1.6 0.00 0.10 0.10 50 1010.6
20260505234130 12 297 0.0 1.6 0.00 0.10 0.10 51 1010.7
20260505233628 12 303 0.0 0.0 0.00 0.10 0.10 51 1010.9
20260505233125 12 301 0.0 0.0 0.00 0.10 0.10 49 1010.9
20260505232623 12 300 0.0 3.2 0.00 0.10 0.10 49 1011.0
20260505232120 12 276 6.4 9.7 0.00 0.10 0.10 48 1011.0
20260505231617 12 291 0.0 3.2 0.00 0.10 0.10 51 1010.7
20260505231116 12 295 0.0 0.0 0.00 0.10 0.10 53 1010.9
20260505230613 12 296 0.0 0.0 0.00 0.10 0.10 55 1010.9
20260505230109 12 299 0.0 0.0 0.00 0.10 0.10 51 1011.0
20260505225606 12 298 0.0 0.0 0.00 0.10 0.10 50 1010.9
20260505225102 12 308 3.2 6.4 0.00 0.10 0.10 48 1010.9
20260505224559 12 298 0.0 3.2 0.00 0.10 0.10 49 1010.8
20260505224056 12 290 0.0 3.2 0.00 0.10 0.10 49 1011.1
20260505223554 12 269 1.6 3.2 0.00 0.10 0.10 50 1011.0
20260505223049 12 283 3.2 3.2 0.00 0.10 0.10 49 1011.1
20260505222546 12 298 0.0 3.2 0.00 0.10 0.10 50 1011.2
20260505222042 12 290 1.6 1.6 0.00 0.10 0.10 50 1011.0
20260505221539 12 298 0.0 0.0 0.00 0.10 0.10 49 1011.0
20260505221036 12 310 3.2 6.4 0.00 0.10 0.10 49 1011.3
20260505220533 12 288 1.6 4.8 0.00 0.10 0.10 48 1011.1
20260505220031 12 289 3.2 4.8 0.00 0.10 0.10 48 1011.2
20260505215529 12 276 3.2 4.8 0.00 0.10 0.10 49 1011.1
20260505215026 12 308 4.8 6.4 0.00 0.10 0.10 46 1011.1
20260505214524 12 296 3.2 3.2 0.00 0.10 0.10 49 1011.3
20260505214021 12 219 3.2 6.4 0.00 0.10 0.10 47 1011.4
20260505213519 12 302 3.2 4.8 0.00 0.10 0.10 49 1011.3
20260505213015 12 301 0.0 11.3 0.00 0.10 0.10 48 1011.2
20260505212511 12 260 3.2 12.9 0.00 0.10 0.10 47 1011.1
20260505212008 12 286 1.6 3.2 0.00 0.10 0.10 46 1011.1
20260505211506 12 297 0.0 1.6 0.00 0.10 0.10 48 1011.2
20260505211002 12 297 0.0 6.4 0.00 0.10 0.10 47 1011.3
20260505210459 12 298 0.0 0.0 0.00 0.10 0.10 48 1011.3
20260505205955 12 267 1.6 4.8 0.00 0.10 0.10 50 1011.3
20260505205454 12 296 1.6 3.2 0.00 0.10 0.10 49 1011.5
20260505204950 13 263 1.6 3.2 0.00 0.10 0.10 53 1011.5
20260505204449 12 309 0.0 0.0 0.00 0.10 0.10 57 1011.8
20260505203946 12 263 4.8 4.8 0.00 0.10 0.10 55 1011.8
20260505203442 13 280 0.0 1.6 0.00 0.10 0.10 57 1011.7
20260505202938 13 284 0.0 3.2 0.00 0.10 0.10 54 1012.0
20260505202435 12 291 3.2 6.4 0.00 0.10 0.10 57 1011.7
20260505201931 12 287 0.0 3.2 0.00 0.10 0.10 56 1011.7
20260505201428 12 277 1.6 4.8 0.00 0.10 0.10 59 1012.1
20260505200926 12 269 3.2 4.8 0.00 0.10 0.10 58 1012.2
20260505200423 12 301 0.0 1.6 0.00 0.10 0.10 60 1012.2
20260505195919 12 298 0.0 1.6 0.00 0.10 0.10 61 1012.3
20260505195416 11 300 0.0 1.6 0.00 0.10 0.10 62 1012.2
20260505194913 11 305 0.0 6.4 0.00 0.10 0.10 60 1012.4
20260505194411 11 180 1.6 4.8 0.00 0.10 0.10 61 1012.2
20260505193911 12 240 3.2 6.4 0.00 0.10 0.10 59 1012.3
20260505193409 12 249 3.2 6.4 0.00 0.10 0.10 58 1012.4
20260505192907 12 289 0.0 4.8 0.00 0.10 0.10 61 1012.3
20260505192404 11 277 3.2 4.8 0.00 0.10 0.10 59 1012.4
20260505191902 11 287 1.6 6.4 0.00 0.10 0.10 59 1012.2
20260505191400 12 292 0.0 0.0 0.00 0.10 0.10 61 1012.5
20260505190857 12 294 0.0 3.2 0.00 0.10 0.10 59 1012.3
20260505190352 11 297 0.0 3.2 0.00 0.10 0.10 60 1012.4
20260505185848 11 283 0.0 0.0 0.00 0.10 0.10 59 1012.4
20260505185345 11 294 0.0 1.6 0.00 0.10 0.10 58 1012.4
20260505184841 11 291 1.6 9.7 0.00 0.10 0.10 57 1012.6
20260505184338 11 284 0.0 4.8 0.00 0.10 0.10 59 1012.6
20260505183835 11 298 0.0 1.6 0.00 0.10 0.10 58 1012.4
20260505183332 11 309 0.0 3.2 0.00 0.10 0.10 58 1012.3
20260505182828 11 298 0.0 0.0 0.00 0.10 0.10 59 1012.4
20260505182325 11 291 0.0 1.6 0.00 0.10 0.10 57 1012.4
20260505181822 11 298 1.6 4.8 0.00 0.10 0.10 56 1012.4
20260505181319 11 298 0.0 4.8 0.00 0.10 0.10 58 1012.5
20260505180816 11 299 3.2 4.8 0.00 0.10 0.10 58 1012.6
20260505180312 11 297 0.0 3.2 0.00 0.10 0.10 57 1012.8
20260505175809 11 274 0.0 4.8 0.00 0.10 0.10 59 1012.7
20260505175306 11 302 3.2 4.8 0.00 0.10 0.10 59 1012.5
20260505174802 11 295 0.0 1.6 0.00 0.10 0.10 60 1013.0
20260505174259 11 308 6.4 6.4 0.00 0.10 0.10 57 1012.8
20260505173755 12 278 1.6 3.2 0.00 0.10 0.10 60 1012.6
20260505173252 12 297 3.2 4.8 0.00 0.10 0.10 57 1012.6
20260505172749 11 245 1.6 3.2 0.00 0.10 0.10 57 1012.6
20260505172246 11 301 4.8 9.7 0.00 0.10 0.10 55 1012.5
20260505171746 11 277 0.0 1.6 0.00 0.10 0.10 56 1012.4
20260505171243 11 301 1.6 4.8 0.00 0.10 0.10 56 1012.5
20260505170740 11 328 8.0 12.9 0.00 0.10 0.10 54 1012.4
20260505170237 11 310 4.8 14.5 0.00 0.10 0.10 56 1012.3
20260505165732 12 274 0.0 9.7 0.00 0.10 0.10 57 1012.2
20260505165228 12 131 3.2 12.9 0.00 0.10 0.10 56 1012.3
20260505164724 12 287 6.4 11.3 0.00 0.10 0.10 58 1012.2
20260505164221 12 298 3.2 4.8 0.00 0.10 0.10 58 1012.1
20260505163719 12 292 3.2 11.3 0.00 0.10 0.10 56 1011.9
20260505163218 11 293 3.2 9.7 0.00 0.10 0.10 57 1011.9
20260505162714 12 300 3.2 6.4 0.00 0.10 0.10 59 1011.9
20260505162211 12 271 4.8 4.8 0.00 0.10 0.10 59 1012.1
20260505161708 11 285 8.0 11.3 0.00 0.10 0.10 60 1012.1
20260505161206 11 289 6.4 9.7 0.00 0.10 0.10 59 1011.9
20260505160703 11 239 6.4 14.5 0.00 0.10 0.10 60 1011.9
20260505160201 11 286 6.4 16.1 0.00 0.10 0.10 59 1011.7
20260505153140 11 291 1.6 6.4 0.00 0.10 0.10 70 1011.4
20260505152637 10 297 3.2 9.7 0.00 0.10 0.10 70 1011.4
20260505152132 10 302 3.2 6.4 0.00 0.10 0.10 71 1011.4
20260505151628 10 289 3.2 11.3 0.00 0.10 0.10 72 1011.3
20260505151126 10 246 0.0 11.3 0.00 0.10 0.10 72 1011.4
20260505150621 10 291 3.2 9.7 0.00 0.10 0.10 73 1011.4
20260505150119 10 300 1.6 12.9 0.00 0.10 0.10 75 1011.2
20260505140547 8 306 4.8 9.7 0.00 0.10 0.10 84 1010.7
20260505125000 7 287 3.2 11.3 0.00 0.10 0.10 85 1011.4
20260505124457 7 295 1.6 6.4 0.13 0.10 0.10 84 1011.3
20260505123953 7 292 0.0 1.6 0.30 0.10 0.10 84 1011.6
20260505123450 8 262 0.0 4.8 0.30 0.08 0.08 82 1011.8
20260505122946 8 298 0.0 4.8 0.13 0.05 0.05 79 1012.0
20260505122443 8 218 4.8 9.7 0.00 0.03 0.03 77 1012.1
20260505121940 8 299 0.0 3.2 0.00 0.03 0.03 75 1012.3
20260505121437 9 300 0.0 4.8 0.18 0.03 0.03 74 1012.2
20260505120933 9 291 0.0 3.2 0.18 0.03 0.03 71 1012.5
20260505120430 10 267 4.8 6.4 0.00 0.00 0.00 69 1012.6
20260505115928 10 304 0.0 11.3 0.00 0.00 0.00 66 1012.4
20260505115425 10 296 0.0 4.8 0.00 0.00 0.00 65 1012.4
20260505114923 10 233 1.6 3.2 0.00 0.00 0.00 67 1012.0
20260505114419 10 294 4.8 6.4 0.00 0.00 0.00 66 1011.4
20260505113916 10 298 3.2 6.4 0.00 0.00 0.00 65 1010.5
20260505113413 10 285 3.2 4.8 0.00 0.00 0.00 66 1010.2
20260505112908 10 297 6.4 11.3 0.00 0.00 0.00 65 1010.0
20260505112406 10 299 0.0 14.5 0.00 0.00 0.00 68 1009.9
20260505111902 10 258 3.2 4.8 0.00 0.00 0.00 66 1009.4
20260505111357 10 299 0.0 0.0 0.00 0.00 0.00 67 1009.9
20260505110853 10 278 0.0 4.8 0.00 0.00 0.00 67 1009.8
20260505110351 10 307 0.0 3.2 0.00 0.00 0.00 66 1010.1
20260505101821 11 296 0.0 1.6 0.00 0.00 0.00 60 1010.0
20260505101316 11 283 0.0 3.2 0.00 0.00 0.00 61 1009.3
20260505100812 11 206 3.2 3.2 0.00 0.00 0.00 61 1009.4
20260505100309 11 186 3.2 4.8 0.00 0.00 0.00 61 1009.4
20260505095804 11 303 1.6 3.2 0.00 0.00 0.00 60 1009.3
20260505095304 11 298 1.6 4.8 0.00 0.00 0.00 61 1009.3
20260505094758 11 300 1.6 1.6 0.00 0.00 0.00 63 1009.2
20260505094255 11 294 1.6 4.8 0.00 0.00 0.00 62 1009.1
20260505093750 11 293 0.0 3.2 0.00 0.00 0.00 61 1008.9
20260505093249 11 294 0.0 6.4 0.00 0.00 0.00 61 1008.9
20260505092745 11 272 6.4 9.7 0.00 0.00 0.00 61 1008.8
20260505092244 11 297 1.6 6.4 0.00 0.00 0.00 62 1009.2
20260505091740 11 268 0.0 1.6 0.00 0.00 0.00 64 1009.2
20260505091239 11 310 6.4 9.7 0.00 0.00 0.00 63 1009.0
20260505090736 11 294 1.6 4.8 0.00 0.00 0.00 62 1009.1
20260505090234 12 306 3.2 12.9 0.00 0.00 0.00 59 1008.9
20260505085731 12 282 6.4 11.3 0.00 0.00 0.00 58 1008.8
20260505085229 12 284 1.6 1.6 0.00 0.00 0.00 59 1008.9
20260505084726 12 180 3.2 9.7 0.00 0.00 0.00 58 1008.8
20260505084225 12 324 6.4 9.7 0.00 0.00 0.00 57 1008.8
20260505083722 12 278 3.2 6.4 0.00 0.00 0.00 57 1008.7
20260505083218 12 302 0.0 1.6 0.00 0.00 0.00 58 1008.7
20260505082715 12 295 3.2 9.7 0.00 0.00 0.00 58 1008.3
20260505082212 12 274 1.6 6.4 0.00 0.00 0.00 57 1008.4
20260505081707 12 295 0.0 3.2 0.00 0.00 0.00 57 1008.6
20260505081205 12 171 1.6 11.3 0.00 0.00 0.00 55 1008.2
20260505080702 12 282 6.4 11.3 0.00 0.00 0.00 56 1008.2
20260505080158 12 255 1.6 14.5 0.00 0.00 0.00 56 1007.6
20260505075654 12 238 8.0 12.9 0.00 0.00 0.00 56 1007.6
20260505075151 12 289 0.0 6.4 0.00 0.00 0.00 57 1007.3
20260505074648 12 302 0.0 4.8 0.00 0.00 0.00 59 1007.2
20260505074145 12 284 0.0 3.2 0.00 0.00 0.00 58 1007.2
20260505073643 12 250 0.0 0.0 0.00 0.00 0.00 61 1007.0
20260505073140 12 291 0.0 3.2 0.00 0.00 0.00 61 1007.0
20260505072636 12 301 1.6 6.4 0.00 0.00 0.00 61 1007.0
20260505072132 12 297 0.0 3.2 0.00 0.00 0.00 62 1006.9
20260505071628 12 293 0.0 0.0 0.00 0.00 0.00 63 1006.9
20260505071126 13 297 0.0 1.6 0.00 0.00 0.00 61 1006.5
20260505070623 13 282 0.0 1.6 0.00 0.00 0.00 62 1006.8
20260505070119 13 255 1.6 4.8 0.00 0.00 0.00 61 1006.7
20260505065615 13 284 4.8 4.8 0.00 0.00 0.00 62 1006.3
20260505065112 13 293 0.0 0.0 0.00 0.00 0.00 63 1006.4
20260505064609 13 299 0.0 0.0 0.00 0.00 0.00 62 1006.6
20260505064108 13 296 1.6 3.2 0.00 0.00 0.00 64 1006.5
20260505063604 13 276 1.6 4.8 0.00 0.00 0.00 68 1006.3
20260505063100 13 295 0.0 3.2 0.00 0.00 0.00 69 1006.3
20260505062557 13 281 0.0 3.2 0.00 0.00 0.00 71 1006.3
20260505062054 13 292 0.0 1.6 0.00 0.00 0.00 75 1006.3
20260505061552 13 287 0.0 3.2 0.00 0.00 0.00 75 1006.0
20260505061049 13 287 1.6 4.8 0.00 0.00 0.00 72 1005.8
20260505060547 14 289 1.6 3.2 0.00 0.00 0.00 73 1005.9
20260505060044 14 295 0.0 11.3 0.00 0.00 0.00 73 1005.5
20260505055538 14 305 3.2 3.2 0.00 0.00 0.00 71 1005.6
20260505055036 14 292 0.0 0.0 0.00 0.00 0.00 74 1005.6
20260505054533 14 313 1.6 4.8 0.00 0.00 0.00 74 1005.4
20260505054031 14 274 3.2 4.8 0.00 0.00 0.00 73 1005.6
20260505053528 14 282 1.6 3.2 0.00 0.00 0.00 75 1005.5
20260505053024 14 278 0.0 3.2 0.00 0.00 0.00 78 1005.6
20260505052521 15 296 1.6 4.8 0.00 0.00 0.00 77 1005.1
20260505052019 15 286 1.6 4.8 0.00 0.00 0.00 78 1005.1
20260505051515 15 288 4.8 4.8 0.00 0.00 0.00 79 1005.2
20260505051014 15 302 0.0 3.2 0.00 0.00 0.00 80 1005.0
20260505050512 15 299 0.0 1.6 0.00 0.00 0.00 80 1004.9
20260505041439 16 287 0.0 4.8 0.00 0.13 0.13 82 1004.4
20260505040937 16 287 1.6 3.2 0.00 0.13 0.13 82 1004.1
20260505040434 16 297 0.0 4.8 0.00 0.13 0.13 82 1003.9
20260505035931 16 297 1.6 4.8 0.00 0.13 0.13 80 1003.9
20260505035426 16 284 1.6 11.3 0.00 0.13 0.13 80 1003.7
20260505034924 16 302 0.0 4.8 0.00 0.13 0.13 82 1003.4
20260505034420 16 295 0.0 4.8 0.00 0.13 0.13 82 1003.0
20260505033917 16 298 0.0 3.2 0.00 0.13 0.13 82 1003.0
20260505033414 16 299 0.0 3.2 0.00 0.13 0.13 80 1002.9
20260505032912 15 282 0.0 3.2 0.00 0.13 0.13 85 1003.2
20260505032409 15 301 0.0 0.0 0.00 0.13 0.13 89 1003.5
20260505031906 16 313 0.0 1.6 0.00 0.13 0.13 87 1003.1
20260505031403 15 301 0.0 0.0 0.00 0.13 0.13 85 1003.3
20260505030859 15 281 0.0 1.6 0.00 0.13 0.13 86 1003.5
20260505030355 16 336 1.6 3.2 0.00 0.13 0.13 86 1003.2
20260505025851 16 293 1.6 3.2 0.00 0.13 0.13 82 1003.6
20260505025349 16 251 4.8 6.4 0.18 0.13 0.13 80 1003.7
20260505024848 16 216 6.4 12.9 0.18 0.13 0.13 79 1003.7
20260505024345 16 283 9.7 17.7 0.13 0.10 0.10 79 1003.9
20260505023842 16 329 3.2 6.4 0.30 0.08 0.08 84 1003.8
20260505023338 16 283 1.6 4.8 0.30 0.05 0.05 81 1003.7
20260505022835 17 218 3.2 14.5 0.18 0.03 0.03 75 1004.1
20260505022332 18 212 9.7 20.9 0.00 0.00 0.00 64 1004.0
20260505021830 18 285 1.6 6.4 0.00 0.00 0.00 61 1003.5
20260505021326 18 314 1.6 6.4 0.00 0.00 0.00 60 1003.1
20260505020822 18 317 4.8 6.4 0.00 0.00 0.00 62 1003.4
20260505020318 18 277 6.4 11.3 0.00 0.00 0.00 59 1003.0
20260505015815 19 173 4.8 11.3 0.00 0.00 0.00 59 1002.9
20260505015312 19 178 6.4 9.7 0.00 0.00 0.00 57 1002.9
20260505014809 19 293 3.2 14.5 0.00 0.00 0.00 56 1003.1
20260505014307 20 160 1.6 20.9 0.00 0.00 0.00 54 1003.1
20260505013802 20 228 4.8 22.5 0.00 0.00 0.00 54 1003.0
20260505013300 21 299 9.7 22.5 0.00 0.00 0.00 51 1003.0
20260505012758 22 257 4.8 17.7 0.00 0.00 0.00 55 1003.3